Regional Weather Roundup
Issued by NWS

Home | Current Version | Previous Version | Text Only | Print | Product List | Glossary Off
Versions: 1 2 3 4 5 6 7 8 9 10 11 12 13 14 15 16 17 18 19 20 21 22 23 24 25 26 27 28 29 30 31 32 33 34 35 36 37 38 39 40 41 42 43 44 45 46 47 48 49 50

000
ASUS43 KOAX 170610
RWRNE

WEATHER ROUNDUP FOR NEBRASKA
NATIONAL WEATHER SERVICE OMAHA NE
1200 AM CST SUN DEC 17 2017

NOTES: SATELLITE DATA IS BEING USED TO AUGMENT CLOUD COVER ABOVE
       12000 FEET.
       "FAIR" INDICATES FEW OR NO CLOUDS BELOW 12,000 FEET WITH NO
       SIGNIFICANT WEATHER AND/OR OBSTRUCTIONS TO VISIBILITY.


NEZ001>004-019>022-054>056-170700-
NEBRASKA PANHANDLE

CITY           SKY/WX    TMP DP  RH WIND       PRES   REMARKS
SCOTTSBLUFF    CLOUDY    33  27  78 E10       30.01S WCI  25
6HR MIN TEMP:  33; 6HR MAX TEMP:  36;

ALLIANCE       CLOUDY    31  27  85 NE10      30.00S WCI  22
6HR MIN TEMP:  31; 6HR MAX TEMP:  34;

CHADRON        CLOUDY    30  26  85 CALM      30.05R
6HR MIN TEMP:  30; 6HR MAX TEMP:  34;

GORDON         CLOUDY    32  29  88 NE3       30.02F
6HR MIN TEMP:  30; 6HR MAX TEMP:  35;

KIMBALL        CLOUDY    30  30  99 NE9       29.97R FOG     WCI  21
SIDNEY         CLOUDY    31  29  92 NE8       29.98R FOG     WCI  23
6HR MIN TEMP:  31; 6HR MAX TEMP:  35;

$$

NEZ057>060-069>072-079>082-170700-
SOUTHWEST NEBRASKA

CITY           SKY/WX    TMP DP  RH WIND       PRES   REMARKS
NORTH PLATTE   CLOUDY    37  33  85 NE16G24   29.98R WCI  28
6HR MIN TEMP:  35; 6HR MAX TEMP:  39;

IMPERIAL       CLOUDY    36  33  89 N16       29.96F WCI  26
6HR MIN TEMP:  31; 6HR MAX TEMP:  36;

LEXINGTON      CLOUDY    35  32  88 N9        29.95F WCI  28
MCCOOK         CLOUDY    35  32  88 NE21G30   29.90F WCI  24
6HR MIN TEMP:  31; 6HR MAX TEMP:  41;

OGALLALA       CLOUDY    37  32  84 NE10      30.00R WCI  29
$$

NEZ005>010-023>029-035>040-094-170700-
NORTH CENTRAL NEBRASKA

CITY           SKY/WX    TMP DP  RH WIND       PRES   REMARKS
VALENTINE      CLOUDY    36  31  82 NE9       30.04S WCI  29
6HR MIN TEMP:  36; 6HR MAX TEMP:  39;

AINSWORTH      CLOUDY    35  33  93 N6        30.03S WCI  30
BROKEN BOW     CLOUDY    38  32  79 NE14      29.99R WCI  30
6HR MIN TEMP:  38; 6HR MAX TEMP:  39;

O`NEILL        CLOUDY    35  35 100 NE7       30.05R WCI  29
ORD            CLOUDY    36  33  89 N10       30.01S WCI  28
6HR MIN TEMP:  31; 6HR MAX TEMP:  37;

THEDFORD       CLOUDY    36  32  85 NE8       30.02S WCI  30
$$

NEZ041-046>049-061>064-073>077-083>087-170700-
SOUTH CENTRAL NEBRASKA

CITY           SKY/WX    TMP DP  RH WIND       PRES   REMARKS
GRAND ISLAND   PTCLDY    32  30  92 N17       29.94F WCI  21
6HR MIN TEMP:  31; 6HR MAX TEMP:  39;

AURORA         CLOUDY    33  30  90 NE15      29.94F WCI  22
HASTINGS       CLOUDY    33  29  85 NE14      29.93F WCI  23
6HR MIN TEMP:  32; 6HR MAX TEMP:  37;

HEBRON         MOCLDY    35  27  73 NE5       29.91F WCI  31
HOLDREGE       CLOUDY    32  31  97 N14       29.91F WCI  22
KEARNEY        PTCLDY    31  29  92 N16       29.92F WCI  20
YORK           CLOUDY    32  32 100 NE15      29.95F WCI  22
$$

NEZ011>018-030>034-042>045-170700-
NORTHEAST NEBRASKA

CITY           SKY/WX    TMP DP  RH WIND       PRES   REMARKS
NORFOLK        CLOUDY    32  28  85 NE8       30.03R WCI  25
6HR MIN TEMP:  31; 6HR MAX TEMP:  38;

ALBION         CLEAR     33  30  90 N6        30.01S WCI  27
BLAIR          CLOUDY    35  29  79 N13       29.97F WCI  26
COLUMBUS       CLOUDY    33  28  81 N12       29.99F WCI  24
FREMONT        CLOUDY    35  28  78 NE7       29.99F WCI  29
TEKAMAH        CLOUDY    29  23  78 N10       30.01R WCI  20
6HR MIN TEMP:  28; 6HR MAX TEMP:  40;

WAYNE          CLOUDY    26  26  96 CALM      30.04R
$$

NEZ050>053-065>068-078-088>093-170700-
SOUTHEAST NEBRASKA

CITY           SKY/WX    TMP DP  RH WIND       PRES   REMARKS
LINCOLN        CLOUDY    36  28  73 N12       29.95F WCI  28
6HR MIN TEMP:  32; 6HR MAX TEMP:  41;

OMAHA EPPLEY   CLOUDY    35  26  69 N13       29.98F WCI  26
6HR MIN TEMP:  33; 6HR MAX TEMP:  40;

BEATRICE       PTCLDY    37  26  65 NE12      29.90F WCI  29
FALLS CITY     CLOUDY    37  25  61 E5        29.93F WCI  33
6HR MIN TEMP:  34; 6HR MAX TEMP:  46;

NEBRASKA CITY  CLOUDY    35  26  69 NE8       29.93F WCI  28
PLATTSMOUTH    CLOUDY    36  28  73 N8        29.95F WCI  30
$$

NEZ044-045-051>053-067-170700-
OMAHA AREA

CITY           SKY/WX    TMP DP  RH WIND       PRES   REMARKS
OMAHA EPPLEY   CLOUDY    35  26  69 N13       29.98F WCI  26
6HR MIN TEMP:  33; 6HR MAX TEMP:  40;

BLAIR          CLOUDY    35  29  79 N13       29.97F WCI  26
FREMONT        CLOUDY    35  28  78 NE7       29.99F WCI  29
MILLARD        CLOUDY    39  30  69 NE5       29.97F
OFFUTT AFB     CLOUDY    37  27  69 NE10      29.96F WCI  29
PLATTSMOUTH    CLOUDY    36  28  73 N8        29.95F WCI  30
WAHOO          FAIR      33  28  82 N12       29.96F WCI  24
$$



USA.gov is the U.S. government's official web portal to all federal, state and local government web resources and services.